www.pogodaiklimat.ru
ПОГОДА в Порвоо
Время
(UTC), дата
19 19.01
20 19.01
21 19.01
22 19.01
23 19.01
00 20.01
01 20.01
02 20.01
03 20.01
04 20.01
05 20.01
06 20.01
07 20.01
08 20.01
09 20.01
10 20.01
11 20.01
12 20.01
13 20.01
14 20.01
15 20.01
16 20.01
17 20.01
18 20.01
19 20.01
20 20.01
21 20.01
22 20.01
23 20.01
00 21.01
01 21.01
02 21.01
03 21.01
04 21.01
05 21.01
06 21.01
07 21.01
08 21.01
09 21.01
10 21.01
11 21.01
12 21.01
13 21.01
14 21.01
15 21.01
16 21.01
17 21.01
18 21.01
19 21.01
20 21.01
21 21.01
22 21.01
23 21.01
00 22.01
01 22.01
02 22.01
03 22.01
04 22.01
05 22.01
06 22.01
07 22.01
08 22.01
09 22.01
10 22.01
11 22.01
12 22.01
13 22.01
14 22.01
15 22.01
16 22.01
17 22.01
18 22.01
19 22.01
20 22.01
21 22.01
22 22.01
23 22.01
00 23.01
01 23.01
02 23.01
03 23.01
04 23.01
05 23.01
06 23.01
07 23.01
08 23.01
09 23.01
10 23.01
11 23.01
12 23.01
13 23.01
14 23.01
15 23.01
16 23.01
17 23.01
18 23.01
19 23.01
20 23.01
21 23.01
22 23.01
23 23.01
00 24.01
01 24.01
02 24.01
03 24.01
04 24.01
05 24.01
06 24.01
07 24.01
08 24.01
09 24.01
10 24.01
11 24.01
12 24.01
13 24.01
14 24.01
15 24.01
16 24.01
17 24.01
18 24.01
19 24.01
20 24.01
21 24.01
22 24.01
23 24.01
00 25.01
01 25.01
02 25.01
03 25.01
04 25.01
05 25.01
06 25.01
07 25.01
08 25.01
09 25.01
10 25.01
11 25.01
12 25.01
13 25.01
14 25.01
15 25.01
16 25.01
17 25.01
18 25.01
19 25.01
20 25.01
21 25.01
22 25.01
23 25.01
00 26.01
01 26.01
03 26.01
04 26.01
05 26.01
06 26.01
07 26.01
08 26.01
09 26.01
10 26.01
11 26.01
12 26.01
13 26.01
14 26.01
15 26.01
16 26.01
17 26.01
18 26.01
Ветер
(напр.,м/с)
Видим. Явления Облачность Т
(С)
Тd
(С)
f
(%)
Тe
(С)
Тes
(С)
Комфортность P
(гПа)
Po
(гПа)
Тmin
(С)
Tmax
(С)
R
(мм)
R24
(мм)
S
(см)
Ю 3-6
{6}
7000 м в посл. час снег 9/9 180 м -0.1 -0.1 100 -5 -5 1010.9 1008.0
ЮЗ 4-8
{8}
13 км 10/10 240 м -0.3 -0.5 99 -6 -6 1011.3 1008.3
ЮЗ 2-4
{7}
30 км в посл. час зёрна {ливн. снег} 10/10 1230 м -0.9 -1.8 94 -5 -5 1011.6 1008.6
ЮЗ 2-4
{6}
40 км 10/4 1500 м -1.4 -1.9 96 -5 -5 1011.7 1008.7
ЮЗ 2 18 км 10/6 1170 м -1.3 -1.6 98 -5 -5 1011.8 1008.8
ЮЗ 2-4
{6}
10 км осадки {ливн. снег} 10/10 330 м -1.3 -1.6 98 -5 -5 1011.8 1008.8
ЮЗ 2-5
{5}
11 км слаб. ливневой снег 9/9 300 м -1.6 -2.1 96 -6 -6 1011.9 1008.9
ЮЗ 2-4
{7}
14 км в посл. час зёрна 10/9 400 м -2.2 -3.0 94 -6 -6 1011.9 1009.0
Ю 2-4
{6}
16 км {ливн. снег, снег} 9/6 450 м -2.6 -3.6 93 -7 -7 1011.9 1008.9
Ю 4-6
{6}
16 км 9/9 400 м -3.2 -4.2 93 -9 -9 1012.0 1009.0
Ю 3-5
{6}
21 км 9/1 300 м -4.2 -5.2 93 -10 -10 1012.0 1009.0
ЮВ 2-3
{4}
21 км {ливн. снег, снег} 1/1 2000 м -6.4 -7.2 94 -11 -11 1011.9 1008.8 -6.4 -0.1 36
ЮВ 2-3
{3}
20 км ясно -7.5 -7.9 97 -12 -12 1011.7 1008.7
ЮВ 2-3
{4}
27 км ясно -7.2 -8.6 90 -12 -11 1011.7 1008.7
ЮВ 3-5
{5}
40 км ясно -6.1 -7.9 87 -12 -11 1011.5 1008.4
ЮВ 2-4
{5}
30 км 6/6 2000 м -4.6 -7.7 79 -9 -8 1011.1 1008.1
ЮВ 3-4
{5}
50 км 6/6 2000 м -4.7 -6.9 85 -10 -10 1010.5 1007.5
ЮВ 3-5
{5}
50 км 9/9 2000 м -3.8 -6.5 81 -9 -9 1009.7 1006.7
Ю 4-5
{6}
50 км 9/1 1000 м -3.6 -6.4 81 -10 -10 1009.3 1006.3
Ю 4-7
{7}
6000 м слаб. снег 10/10 420 м -4.0 -4.4 97 -10 -10 1009.1 1006.1 0.2
Ю 4-7
{7}
2300 м слаб. снег {осадки} 10/10 600 м -4.3 -5.0 95 -11 -11 1008.8 1005.8 0.2
Ю 4-6
{7}
13 км слаб. ливневой снег 10/10 450 м -4.3 -5.2 93 -11 -11 1008.6 1005.6 0.1
Ю 4-7
{8}
28 км слаб. ливневой снег 10/10 500 м -4.5 -5.8 91 -11 -11 1008.3 1005.3 0.1
Ю 4-7
{8}
45 км в посл. час переохл. осадки (гололёд) 10/10 600 м -4.6 -5.9 91 -11 -11 1007.9 1004.9 -7.7 -3.6
ЮВ 4-6
{6}
50 км в посл. час зёрна 10/10 480 м -4.8 -6.0 91 -11 -11 1007.6 1004.6
ЮВ 3-5
{6}
50 км 10/10 450 м -4.8 -6.0 91 -10 -10 1007.0 1004.0
ЮВ 3-5
{5}
50 км {ливн. снег} 9/9 540 м -4.7 -5.8 92 -10 -10 1006.5 1003.5
ЮВ 3-5
{6}
40 км 10/10 330 м -4.8 -5.8 93 -10 -10 1006.2 1003.2
ЮВ 3-5
{7}
35 км 10/10 300 м -4.7 -5.5 94 -10 -10 1005.6 1002.6
ЮВ 5-8
{8}
19 км слаб. снег 10/10 240 м -4.3 -4.8 96 -12 -12 1004.9 1001.9
ЮВ 5-8
{8}
9000 м снежные зёрна 9/9 270 м -4.2 -4.8 96 -11 -11 1004.5 1001.6
ЮВ 4-7
{9}
3700 м слаб. снег 10/10 270 м -4.3 -4.6 98 -11 -11 1003.9 1000.9 0.3
ЮВ 5-8
{9}
11 км снежные зёрна 10/10 300 м -4.3 -5.1 94 -11 -11 1003.7 1000.8 0.1
ЮВ 6-9
{10}
11 км слаб. снег 10/10 360 м -4.6 -5.7 92 -12 -12 1003.5 1000.5
ЮВ 5-8
{9}
6000 м слаб. снег 10/10 300 м -4.9 -5.8 93 -12 -12 1003.3 1000.3
ЮВ 5 3400 м слаб. снег 10/10 300 м -5.0 -5.8 94 -12 -12 1003.0 1000.0 -5.0 -4.1 0.3 37
ЮВ 5-9
{9}
3100 м слаб. снег 10/10 400 м -5.1 -6.0 93 -12 -12 1003.0 1000.1 0.4
ЮВ 5-8
{8}
4400 м снежные зёрна 10/10 360 м -5.2 -6.0 94 -13 -13 1002.9 999.9 0.3
ЮВ 5-8
{9}
5000 м слаб. снег 10/10 330 м -5.1 -6.0 93 -12 -12 1002.7 999.7 0.2
ЮВ 5-8
{10}
2500 м слаб. снег 10/10 400 м -5.5 -6.5 93 -13 -13 1002.2 999.3 0.3
ЮВ 5-10
{11}
1300 м слаб. снег ?/? -5.7 -6.5 94 -13 -13 1001.8 998.8 0.4
ЮВ 5-9
{9}
1400 м слаб. снег 10/10 360 м -5.8 -6.4 96 -13 -13 1001.1 998.1 0.6
ЮВ 6-9
{10}
1200 м слаб. снег ?/? -5.6 -6.3 95 -14 -14 1000.9 997.9 0.7
ЮВ 5-9
{10}
1100 м слаб. снег ?/? -5.6 -6.0 97 -13 -13 1000.5 997.5 0.7
ЮВ 5 4900 м снежные зёрна 10/10 330 м -5.4 -5.9 96 -13 -13 1000.1 997.1 0.2
ЮВ 5-9
{9}
9000 м снежные кристаллы 10/10 200 м -5.1 -5.8 95 -12 -12 999.5 996.6
ЮВ 5-9
{11}
3900 м в посл. час зёрна 10/10 270 м -4.8 -5.0 98 -12 -12 999.2 996.3
ЮВ 6 3100 м дымка {ливн. снег, снег} 9/9 180 м -4.4 -4.4 100 -12 -12 998.5 995.6 -5.8 -4.4
ЮВ 6-9
{14}
3800 м осадки 9/9 100 м -4.2 -4.2 100 -12 -12 998.2 995.2
ЮВ 5-9
{12}
5000 м снежные зёрна 9/9 50 м -3.9 -3.9 100 -11 -11 997.5 994.6
ЮВ 5-9
{10}
6000 м слаб. снег {осадки} 9/9 150 м -3.4 -3.4 100 -11 -11 996.8 993.9
ЮВ 5-8
{9}
3700 м слаб. снег 9/9 180 м -2.8 -2.8 100 -10 -10 996.2 993.2 0.4
ЮВ 4-7
{8}
3500 м слаб. снег 9/9 180 м -2.3 -2.3 100 -9 -9 996.0 993.1 0.1
ЮВ 3-5
{7}
5000 м слаб. снег {осадки} 9/9 180 м -1.9 -1.9 100 -7 -7 995.5 992.6 0.1
ЮВ 3-5
{6}
3800 м дымка 9/9 150 м -1.3 -1.3 100 -7 -7 995.3 992.4
ЮВ 3-6
{6}
3700 м дымка 9/9 210 м -0.5 -0.5 100 -6 -6 995.0 992.1
ЮВ 3-5
{6}
3700 м дымка {снег} 9/9 210 м -0.1 -0.1 100 -5 -5 995.1 992.2
ЮВ 2 3600 м дымка 9/9 270 м +0.4 +0.4 100 -3 -3 995.1 992.2
Ю 3 4700 м дымка 9/9 210 м +0.7 +0.7 100 -4 -4 995.0 992.2
Ю 3 5000 м дымка {снег} 9/9 540 м +0.9 +0.9 100 -4 -4 995.3 992.4 -4.4 +1.2 40
ЮВ 3-4
{4}
5000 м дымка 9/9 100 м +1.1 +1.1 100 -4 -4 995.5 992.6
ЮВ 3-4
{4}
4800 м дымка 9/9 150 м +0.8 +0.8 100 -4 -4 995.3 992.4
ЮВ 3-5
{5}
5000 м дымка 9/9 150 м +1.0 +1.0 100 -4 -4 995.4 992.5
ЮВ 4-5
{6}
5000 м дымка 9/9 100 м +1.2 +1.2 100 -4 -4 994.9 992.0
ЮВ 3-5
{6}
3900 м дымка 9/9 50 м +1.1 +1.1 100 -4 -4 994.8 991.9
ЮВ 4-5
{6}
3700 м дымка 9/9 50 м +1.1 +1.1 100 -4 -4 993.9 991.0
ЮВ 4-7
{7}
2700 м дымка 9/9 120 м +1.0 +1.0 100 -5 -5 993.6 990.7
ЮВ 4-8
{8}
2800 м дымка 9/9 50 м +1.0 +1.0 100 -5 -5 993.4 990.5
ЮВ 4-6
{8}
3400 м слаб. дождь {осадки} 9/9 150 м +0.9 +0.9 100 -5 -5 992.7 989.8 0.6
ЮВ 4-6
{7}
4200 м слаб. дождь 9/9 120 м +1.1 +1.1 100 -4 -4 992.3 989.5 0.7
ЮВ 4-7
{8}
4100 м дымка 9/9 150 м +1.2 +1.2 100 -4 -4 991.1 988.3
ЮВ 5 6000 м слаб. ливневой дождь 9/9 180 м +1.4 +1.4 100 -5 -5 990.9 988.0 +0.8 +1.5
ЮВ 4-8
{9}
8000 м в посл. час дождь 9/1 200 м +1.6 +1.6 100 -4 -4 991.0 988.2
ЮВ 3-5
{7}
8000 м слаб. дождь 9/9 600 м +1.8 +1.8 100 -3 -3 990.9 988.0 0.1
Ю 4-7
{7}
8000 м слаб. дождь 9/9 660 м +2.5 +2.1 97 -3 -3 991.3 988.5 0.1
Ю 5-7
{8}
14 км в посл. час дождь 9/9 300 м +2.5 +2.0 96 -3 -3 991.7 988.8 0.1
Ю 4-7
{7}
13 км 9/9 300 м +2.5 +1.8 95 -3 -3 991.8 988.9
Ю 5-8
{8}
13 км {ливн. дождь, дождь} 9/9 450 м +2.6 +1.8 94 -3 -3 992.2 989.3
Ю 5-7
{9}
12 км 9/6 930 м +2.6 +1.8 94 -3 -3 992.4 989.5
Ю 5-8
{9}
12 км 10/10 930 м +2.5 +1.8 95 -3 -3 992.7 989.8
Ю 5 13 км 9/6 450 м +2.6 +1.9 95 -3 -3 993.1 990.3
Ю 5-8
{9}
12 км 10/10 1020 м +2.4 +1.8 96 -3 -3 993.5 990.7
Ю 6-9
{11}
13 км 10/10 400 м +2.4 +1.7 95 -4 -4 993.7 990.9
Ю 6-9
{10}
16 км 10/10 600 м +2.7 +1.5 92 -3 -3 994.0 991.1 +1.4 +2.7 35
Ю 6-9
{10}
18 км 10/10 930 м +2.6 +1.2 90 -3 -3 994.4 991.5
Ю 6-10
{11}
22 км 10/10 840 м +2.5 +1.0 90 -4 -4 994.6 991.7
Ю 6-10
{11}
26 км 10/10 720 м +2.7 +1.1 89 -3 -3 995.1 992.2
Ю 6-10
{11}
30 км 10/10 800 м +2.9 +1.2 89 -3 -3 995.7 992.9
Ю 5 27 км 10/10 480 м +2.7 +1.2 90 -3 -3 996.2 993.3
Ю 5-8
{8}
28 км 10/10 720 м +3.1 +1.4 89 -2 -2 996.7 993.8
ЮЗ 4-8
{11}
35 км 10/10 720 м +3.2 +1.4 88 -2 -2 997.3 994.4
Ю 3-7
{7}
30 км 10/10 600 м +3.0 +1.4 89 -1 -1 997.9 995.0
Ю 4-7
{8}
29 км 9/9 870 м +3.1 +1.3 88 -2 -2 998.4 995.6
Ю 4-7
{9}
30 км 9/9 930 м +3.3 +1.4 87 -1 -1 999.0 996.1
Ю 4-7
{7}
30 км 10/10 900 м +2.6 +1.2 90 -2 -2 999.3 996.5
Ю 4 29 км 9/9 840 м +2.5 +1.0 90 -2 -2 999.4 996.6 +2.5 +3.3
Ю 4-6
{7}
27 км 10/10 660 м +2.3 +1.0 91 -3 -3 999.6 996.8
Ю 3-4
{5}
26 км 9/9 630 м +2.1 +1.1 93 -2 -2 999.4 996.5
Ю 3-5
{5}
26 км 9/9 600 м +1.9 +1.2 95 -3 -3 999.5 996.6
Ю 3-6
{6}
23 км 10/10 360 м +1.8 +1.3 96 -3 -3 999.6 996.7
ЮВ 3-4
{5}
21 км 9/4 240 м +1.5 +1.0 96 -3 -3 999.7 996.8
ЮВ 3-5
{5}
18 км 9/4 240 м +1.2 +1.0 99 -4 -4 998.5 995.6
ЮВ 3-6
{7}
12 км 9/9 210 м +0.8 +0.5 98 -4 -4 997.4 994.5
ЮВ 4-7
{7}
5000 м слаб. ледяной дождь 10/10 150 м +0.5 +0.5 100 -5 -5 997.2 994.3 0.4
ЮВ 4-7
{7}
6000 м слаб. снег {дождь} 10/10 150 м +0.4 +0.4 100 -5 -5 996.8 993.9 0.3
ЮВ 3-6
{7}
14 км слаб. ледяной дождь 10/10 150 м +0.5 +0.5 100 -4 -4 996.0 993.1 0.4
ЮВ 3-6
{6}
4200 м слаб. снег 10/10 120 м +0.7 +0.7 100 -4 -4 995.3 992.5 0.1
ЮВ 3-4
{5}
5000 м морось {ливн. снег, снег} 9/9 50 м +0.9 +0.9 100 -4 -4 995.2 992.3 +0.4 +2.6 0.1 29
ЮВ 3-4
{5}
10 км в посл. час морось 9/9 120 м +1.3 +1.3 100 -3 -3 995.3 992.4
ЮВ 3-5
{5}
7000 м дымка 10/10 120 м +1.6 +1.6 100 -3 -3 995.4 992.5
ЮВ 3-5
{5}
7000 м дымка 10/10 150 м +1.9 +1.9 100 -3 -3 995.4 992.5
Ю 4-7
{7}
10 км 10/10 180 м +2.5 +2.5 100 -3 -3 995.6 992.8
Ю 5-7
{8}
12 км 9/9 240 м +2.8 +2.8 100 -3 -3 995.8 992.9
Ю 4-7
{7}
14 км {морось} 6/6 240 м +3.0 +2.8 99 -2 -2 995.7 992.9
Ю 2-4
{7}
15 км 9/9 1230 м +2.7 +2.4 98 -1 -1 996.0 993.2
Ю 3-4
{5}
12 км 9/9 210 м +2.4 +2.4 100 -2 -2 996.6 993.7
Ю 3-4
{5}
11 км 10/10 240 м +2.1 +2.1 100 -2 -2 997.0 994.1
Ю 2-4
{5}
9000 м дымка 10/10 330 м +1.9 +1.9 100 -2 -2 997.2 994.3
Ю 2-3
{4}
9000 м дымка 9/9 240 м +1.9 +1.9 100 -2 -2 997.4 994.5
ЮВ 2 6000 м дымка 10/10 150 м +1.8 +1.8 100 -2 -2 997.2 994.3 +0.9 +3.1
ЮВ 2-2
{3}
6000 м дымка 9/9 300 м +1.7 +1.7 100 -2 -2 997.1 994.2
ЮВ 2-3
{3}
1300 м дымка 10/10 50 м +1.6 +1.6 100 -2 -2 997.1 994.2
ЮВ 2-4
{4}
2600 м слаб. дождь {морось} 9/9 90 м +1.3 +1.3 100 -2 -2 996.9 994.0 0.2
ЮВ 2-3
{4}
1600 м слаб. ледяной дождь 10/10 90 м +0.5 +0.5 100 -3 -3 996.6 993.7 0.8
В 2-3
{3}
2400 м слаб. снег 10/10 150 м +0.3 +0.3 100 -4 -4 996.1 993.2 0.8
В 2-3
{5}
8000 м снежные зёрна {дождь} 10/10 120 м +0.4 +0.4 100 -3 -3 995.6 992.7 0.5
В 3-4
{5}
2000 м в посл. час морось 10/10 120 м +0.6 +0.6 100 -4 -4 994.9 992.0 0.1
В 3-4
{4}
2400 м ледяной дождь 9/9 120 м +0.5 +0.5 100 -4 -4 994.4 991.5 0.6
В 3-5
{6}
1900 м слаб. снег 10/10 120 м +0.4 +0.4 100 -4 -4 994.2 991.3 0.6
ЮВ 3-5
{6}
2400 м слаб. дождь со снегом 10/10 150 м +0.4 +0.4 100 -4 -4 993.8 990.9 0.7
ЮВ 3-4
{5}
1800 м слаб. снег 10/10 120 м +0.3 +0.3 100 -5 -5 993.6 990.7 0.9
ЮВ 3-4
{5}
4800 м слаб. снег 10/10 120 м +0.3 +0.3 100 -5 -5 994.0 991.1 +0.3 +1.8 0.4 26
Ю 4-6
{6}
15 км слаб. снег 9/9 50 м +0.6 +0.6 100 -5 -5 994.2 991.4 0.2
Ю 3-6
{6}
17 км слаб. дождь 10/10 150 м +0.9 +0.9 100 -4 -4 995.0 992.1
Ю 3-5
{5}
40 км в посл. час дождь 9/9 210 м +1.1 +1.1 100 -4 -4 995.7 992.8 0.1
Ю 3-5
{7}
7000 м слаб. дождь со снегом 9/9 150 м +1.1 +1.1 100 -4 -4 996.0 993.2 0.1
Ю 4-7
{7}
15 км 10/10 210 м +1.4 +1.4 100 -4 -4 996.5 993.6
Ю 4-6
{7}
18 км {ливн. снег, снег} 10/10 180 м +1.5 +1.5 100 -4 -4 996.7 993.9
Ю 4-6
{7}
30 км 10/10 300 м +1.8 +1.6 99 -4 -4 997.2 994.4
Ю 5-7
{9}
50 км 10/10 1000 м +1.7 +1.2 96 -4 -4 997.6 994.8
Ю 4-6
{8}
50 км ливневой дождь {морось} 10/10 800 м +1.5 +0.4 92 -4 -4 998.4 995.5
Ю 3-6
{8}
10 км слаб. дождь 9/9 660 м +1.2 +0.5 95 -3 -3 998.8 995.9
ЮВ 3-6
{7}
45 км в посл. час дождь 10/10 930 м +1.1 +0.4 95 -4 -4 999.0 996.1
Ю 4-5
{7}
50 км {ливн. снег, дождь} 10/10 1000 м +1.2 -0.1 91 -4 -4 999.3 996.4 +0.3 +1.9
Ю 4-6
{6}
45 км 10/10 480 м +1.2 0.0 92 -4 -4 999.8 996.9
Ю 4-6
{6}
45 км 10/10 600 м +1.3 -0.1 90 -4 -4 1000.2 997.3
Ю 4-6
{7}
45 км 10/10 700 м +1.3 0.0 91 -4 -4 1000.6 997.7
ЮВ 3-5
{6}
45 км 10/10 570 м +1.2 0.0 92 -3 -3 1000.9 998.0
Ю 3-6
{6}
40 км 10/10 600 м +1.2 0.0 92 -3 -3 1001.2 998.3
Ю 3-4
{5}
50 км 10/10 600 м +1.2 0.0 92 -3 -3 1001.5 998.6
ЮВ 3-5
{5}
30 км 10/10 540 м +1.0 +0.1 94 -4 -4 1001.7 998.8
ЮВ 2-3
{4}
45 км 10/10 300 м +0.8 -0.4 92 -3 -3 1001.5 998.5
В 1-2
{4}
30 км 10/10 600 м +0.8 -0.1 94 -1 -1 1001.8 998.9
В 1-2
{2}
21 км 10/10 800 м +0.7 +0.2 96 -1 -1 1001.5 998.6
СВ 2-3
{3}
15 км 9/9 1000 м +0.5 +0.2 98 -3 -3 1001.5 998.5 +0.5 +1.4 25
СВ 2 12 км 9/4 1500 м +0.3 +0.2 99 -4 -4 1001.4 998.5
СВ 2 11 км 9/9 570 м +0.4 +0.4 100 -3 -3 1001.4 998.5
С 4-5
{5}
3600 м слаб. снег {осадки} 10/10 540 м +0.4 +0.2 99 -5 -5 1001.1 998.2 0.1
С 4 3300 м слаб. снег 10/10 180 м +0.4 +0.4 100 -5 -5 1000.7 997.8 0.4
СВ 4 2100 м слаб. снег 9/9 180 м +0.5 +0.5 100 -5 -5 1000.4 997.5 0.5
С 3-4
{5}
2700 м слаб. ледяной дождь 9/9 150 м +0.5 +0.5 100 -4 -4 1000.1 997.2 0.8
СВ 3-6
{6}
4900 м слаб. дождь 10/10 180 м +0.6 +0.6 100 -4 -4 999.7 996.8 0.4
С 4 15 км слаб. снег 10/10 150 м +0.6 +0.6 100 -5 -5 999.5 996.6 0.3
СВ 3-5
{5}
4400 м слаб. снег {дождь} 10/10 150 м +0.5 +0.5 100 -4 -4 999.5 996.6 0.3
С 4 4600 м слаб. дождь со снегом 10/10 150 м +0.4 +0.4 100 -5 -5 999.2 996.3 0.4
СВ 3 4400 м слаб. снег 10/10 150 м +0.5 +0.5 100 -4 -4 998.9 996.0 0.3
СВ 4 4100 м слаб. ливневой снег 10/10 150 м +0.5 +0.5 100 -5 -5 998.6 995.7 +0.3 +0.7 0.2
Местоположение метеостанции Порвоо (Финляндия): широта 60.39 долгота 25.61 высота над уровнем моря 22 м.
В архиве по умолчанию представлена погода в Порвоо за последнюю неделю. Архивные данные за месяц целиком и за предыдущие месяцы, начиная с января 2011 года, Вы можете получить, выбрав интересующий диапазон дат из раскрывающегося списка и нажав кнопку "Найти!".
*Определитесь, кто Вы:
Внимание! Время в таблицах - всемирное. Для получения местного времени необходимо прибавить поправку, которая равна 1 ч.
Смотрите также архив погоды в соседних городах и на ближайших метеорологических станциях:
Партнеры нашего сайта:      
Пояснения к столбцам:
  • Ветер - указаны скорость ветра в м/с - средняя за 10 мин, порывы в срок и между сроками (в фигурных скобках) и направление, откуда дует ветер: С - северный,
  • СВ - северо-восточный, В - восточный, ЮВ - юго-восточный, Ю - южный, ЮЗ - юго-западный, З - западный, СЗ - северо-западный.
  • Видимость - горизонтальная дальность видимости в метрах или километрах. При видимости от 1 до 10 км при отсутствии осадков обычно наблюдается дымка, при ухудшении видимости до 1 км и менее - туман. В сухую погоду видимость может ухудшаться дымом, пылью или мглою.
  • Явления - указаны атмосферные явления, наблюдавшиеся в срок или в последний час перед сроком; фигурными скобками обозначены явления, наблюдавшиеся между сроками (за 1-3 часа до срока); квадратными скобками обозначены град или гололедные отложения с указанием их диаметра в мм.
  • Облачность - указаны через наклонную черту общая и нижняя облачность в баллах и высота нижней границы облаков в метрах; квадратными скобками обозначены формы облаков: Ci - перистые, Cs - перисто-слоистые, Cc - перисто-кучевые, Ac - высококучевые, As - высокослоистые, Sc - слоисто-кучевые, Ns - слоисто-дождевые, Cu - кучевые, Cb - кучево-дождевые. Подробнее классификацию облаков см. в Атласе облаков (PDF).
  • T - Температура воздуха - температура, измеренная на высоте 2 м над землей.
  • Td - Температура точки росы - температура, при понижении до которой содержащийся в воздухе водяной пар достигнет насыщения.
  • f - Относительная влажность воздуха - влажноcть воздуха, измеренная на высоте 2 м над землей.
  • Te - Эффективная температура - температура, которую ощущает одетый по сезону человек в тени. Характеристика душности погоды. При расчете учитывается влияние влажности воздуха и скорости ветра на теплоощущения человека.
  • Tes - Эффективная температура на солнце - температура, которую ощущает человек, с поправкой на солнечный нагрев. Характеристика знойности погоды. Зависит от высоты солнца над горизонтом, облачности и скорости ветра. Ночью, в пасмурную погоду, а также при ветре 12 м/с и более поправка равна нулю.
  • P - Атмосферное давление - приведенное к уровню моря атмосферное давление.
  • Po - Атмосферное давление - измеренное на уровне метеостанции атмосферное давление.
  • Tmin - Минимальная температура - минимум температуры воздуха на высоте 2 м над землей.
  • Tmax - Максимальная температура - максимум температуры воздуха на высоте 2 м над землей.
  • R - Количество осадков - Количество выпавших осадков за период времени, мм. При наведении курсора мыши на число - период времени, за который выпало указанное количество осадков.
  • R24 - Количество осадков - Количество выпавших осадков за 24 часа, мм.
  • S - Снежный покров - Высота снежного покрова, см. При наведении курсора мыши на число - состояние снежного покрова и степень покрытия местности в баллах.